When you browse on this site, cookies collect data to enhance your experience and personalize the content and advertising you see.
Visit our Privacy Policy to learn more. By continuing to use the site, you agree to this use of cookies and data.
  • In Spain
  • List of Countries
  • For 7 days
  • Water Temperature
  • Weather Map
  • Weather Widgets
  • user-avatar
    Login

    Hourly Weather Makadi Bey

    Today, 22 October, Tuesday

    Time Temperature Precipitation Wind Pressure Humidity
    00:00 +22°C° 0 mm 1 mps 704 mmHg 37%
    01:00 +22°C° 0 mm 1 mps 703 mmHg 38%
    02:00 +22°C° 0 mm 1 mps 703 mmHg 39%
    03:00 +21°C° 0 mm 1 mps 703 mmHg 40%
    04:00 +21°C° 0 mm 1 mps 703 mmHg 41%
    05:00 +18°C° 0 mm 0 mps 703 mmHg 42%
    06:00 +21°C° 0 mm 0 mps 704 mmHg 36%
    07:00 +24°C° 0 mm 0 mps 704 mmHg 31%
    08:00 +29°C° 0 mm 1 mps 705 mmHg 26%
    09:00 +30°C° 0 mm 2 mps 705 mmHg 23%
    10:00 +33°C° 0 mm 3 mps 706 mmHg 21%
    11:00 +35°C° 0 mm 4 mps 706 mmHg 18%
    12:00 +35°C° 0 mm 4 mps 705 mmHg 18%
    13:00 +35°C° 0 mm 4 mps 705 mmHg 17%
    14:00 +35°C° 0 mm 5 mps 704 mmHg 17%
    15:00 +34°C° 0 mm 5 mps 704 mmHg 18%
    16:00 +33°C° 0 mm 5 mps 704 mmHg 20%
    17:00 +32°C° 0 mm 5 mps 704 mmHg 22%
    18:00 +29°C° 0 mm 4 mps 704 mmHg 25%
    19:00 +27°C° 0 mm 3 mps 704 mmHg 28%
    20:00 +26°C° 0 mm 3 mps 704 mmHg 31%
    21:00 +25°C° 0 mm 2 mps 704 mmHg 33%
    22:00 +24°C° 0 mm 2 mps 704 mmHg 34%
    23:00 +23°C° 0 mm 2 mps 704 mmHg 36%

    Tomorrow, 23 October, Wednesday

    Time Temperature Precipitation Wind Pressure Humidity
    00:00 +23°C° 0 mm 2 mps 703 mmHg 37%
    01:00 +22°C° 0 mm 1 mps 703 mmHg 38%
    02:00 +22°C° 0 mm 1 mps 703 mmHg 40%
    03:00 +21°C° 0 mm 1 mps 703 mmHg 41%
    04:00 +20°C° 0 mm 2 mps 703 mmHg 42%
    05:00 +20°C° 0 mm 2 mps 704 mmHg 43%
    06:00 +23°C° 0 mm 2 mps 704 mmHg 39%
    07:00 +25°C° 0 mm 3 mps 705 mmHg 35%
    08:00 +27°C° 0 mm 3 mps 705 mmHg 30%
    09:00 +28°C° 0 mm 4 mps 705 mmHg 28%
    10:00 +30°C° 0 mm 5 mps 706 mmHg 26%
    11:00 +32°C° 0 mm 6 mps 706 mmHg 23%
    12:00 +33°C° 0 mm 6 mps 705 mmHg 22%
    13:00 +33°C° 0 mm 6 mps 705 mmHg 20%
    14:00 +34°C° 0 mm 6 mps 704 mmHg 19%
    15:00 +32°C° 0 mm 5 mps 704 mmHg 22%
    16:00 +30°C° 0 mm 4 mps 704 mmHg 25%
    17:00 +28°C° 0 mm 4 mps 704 mmHg 28%
    18:00 +26°C° 0 mm 3 mps 704 mmHg 32%
    19:00 +25°C° 0 mm 3 mps 704 mmHg 35%
    20:00 +23°C° 0 mm 2 mps 704 mmHg 39%
    21:00 +21°C° 0 mm 2 mps 704 mmHg 40%
    22:00 +21°C° 0 mm 2 mps 705 mmHg 42%
    23:00 +20°C° 0 mm 2 mps 705 mmHg 43%

    Day after tomorrow, 24 October, Thursday

    Time Temperature Precipitation Wind Pressure Humidity
    00:00 +20°C° 0 mm 2 mps 704 mmHg 45%
    01:00 +19°C° 0 mm 2 mps 704 mmHg 46%
    02:00 +19°C° 0 mm 1 mps 704 mmHg 48%
    03:00 +19°C° 0 mm 1 mps 704 mmHg 50%
    04:00 +18°C° 0 mm 1 mps 704 mmHg 52%
    05:00 +18°C° 0 mm 1 mps 704 mmHg 54%
    06:00 +20°C° 0 mm 1 mps 704 mmHg 48%
    07:00 +22°C° 0 mm 1 mps 705 mmHg 41%
    08:00 +24°C° 0 mm 1 mps 706 mmHg 34%
    09:00 +26°C° 0 mm 2 mps 706 mmHg 30%
    10:00 +27°C° 0 mm 3 mps 706 mmHg 25%
    11:00 +29°C° 0 mm 4 mps 706 mmHg 20%
    12:00 +29°C° 0 mm 5 mps 706 mmHg 18%
    13:00 +30°C° 0 mm 5 mps 706 mmHg 16%
    14:00 +30°C° 0 mm 5 mps 705 mmHg 14%
    15:00 +28°C° 0 mm 5 mps 705 mmHg 17%
    16:00 +27°C° 0 mm 4 mps 705 mmHg 20%
    17:00 +25°C° 0 mm 3 mps 704 mmHg 23%
    18:00 +24°C° 0 mm 3 mps 704 mmHg 29%
    19:00 +21°C° 0 mm 2 mps 705 mmHg 34%
    20:00 +19°C° 0 mm 2 mps 705 mmHg 40%
    21:00 +18°C° 0 mm 2 mps 705 mmHg 44%
    22:00 +19°C° 0 mm 1 mps 705 mmHg 47%
    23:00 +18°C° 0 mm 1 mps 704 mmHg 51%

    25 October, Friday

    Time Temperature Precipitation Wind Pressure Humidity
    00:00 +18°C° 0 mm 1 mps 704 mmHg 52%
    01:00 +16°C° 0 mm 1 mps 704 mmHg 53%
    02:00 +16°C° 0 mm 1 mps 704 mmHg 54%
    03:00 +15°C° 0 mm 1 mps 704 mmHg 56%
    04:00 +15°C° 0 mm 1 mps 704 mmHg 58%
    05:00 +15°C° 0 mm 1 mps 704 mmHg 60%
    06:00 +18°C° 0 mm 1 mps 704 mmHg 52%
    07:00 +21°C° 0 mm 1 mps 705 mmHg 44%
    08:00 +23°C° 0 mm 1 mps 706 mmHg 36%
    09:00 +25°C° 0 mm 2 mps 706 mmHg 32%
    10:00 +26°C° 0 mm 3 mps 706 mmHg 27%
    11:00 +28°C° 0 mm 4 mps 706 mmHg 23%
    12:00 +28°C° 0 mm 4 mps 706 mmHg 22%
    13:00 +29°C° 0 mm 5 mps 706 mmHg 22%
    14:00 +29°C° 0 mm 5 mps 705 mmHg 21%
    15:00 +28°C° 0 mm 5 mps 705 mmHg 25%
    16:00 +26°C° 0 mm 4 mps 705 mmHg 29%
    17:00 +25°C° 0 mm 4 mps 705 mmHg 32%
    18:00 +22°C° 0 mm 3 mps 705 mmHg 40%
    19:00 +20°C° 0 mm 2 mps 705 mmHg 47%
    20:00 +19°C° 0 mm 1 mps 705 mmHg 55%
    21:00 +19°C° 0 mm 1 mps 705 mmHg 56%
    22:00 +19°C° 0 mm 1 mps 705 mmHg 57%
    23:00 +18°C° 0 mm 1 mps 705 mmHg 58%

    26 October, Saturday

    Time Temperature Precipitation Wind Pressure Humidity
    00:00 +18°C° 0 mm 1 mps 705 mmHg 58%
    01:00 +18°C° 0 mm 1 mps 705 mmHg 58%
    02:00 +16°C° 0 mm 1 mps 705 mmHg 58%
    03:00 +16°C° 0 mm 1 mps 705 mmHg 59%
    04:00 +16°C° 0 mm 1 mps 705 mmHg 60%
    05:00 +16°C° 0 mm 1 mps 705 mmHg 60%
    06:00 +18°C° 0 mm 2 mps 705 mmHg 55%
    07:00 +20°C° 0 mm 2 mps 706 mmHg 49%
    08:00 +22°C° 0 mm 3 mps 707 mmHg 44%
    09:00 +23°C° 0 mm 4 mps 707 mmHg 40%
    10:00 +26°C° 0 mm 4 mps 707 mmHg 36%
    11:00 +27°C° 0 mm 5 mps 707 mmHg 32%
    12:00 +28°C° 0 mm 5 mps 707 mmHg 31%
    13:00 +28°C° 0 mm 5 mps 706 mmHg 29%
    14:00 +29°C° 0 mm 6 mps 706 mmHg 27%
    15:00 +28°C° 0 mm 5 mps 705 mmHg 31%
    16:00 +26°C° 0 mm 4 mps 705 mmHg 36%
    17:00 +25°C° 0 mm 4 mps 705 mmHg 40%
    18:00 +22°C° 0 mm 3 mps 705 mmHg 50%
    19:00 +20°C° 0 mm 2 mps 705 mmHg 60%
    20:00 +19°C° 0 mm 1 mps 705 mmHg 70%
    21:00 +19°C° 0 mm 1 mps 705 mmHg 73%
    22:00 +18°C° 0 mm 1 mps 705 mmHg 77%
    23:00 +18°C° 0 mm 1 mps 704 mmHg 80%

    27 October, Sunday

    Time Temperature Precipitation Wind Pressure Humidity
    00:00 +16°C° 0 mm 1 mps 704 mmHg 81%
    01:00 +16°C° 0 mm 1 mps 704 mmHg 81%
    02:00 +16°C° 0 mm 1 mps 704 mmHg 82%
    03:00 +15°C° 0 mm 1 mps 704 mmHg 82%
    04:00 +15°C° 0 mm 1 mps 704 mmHg 83%
    05:00 +15°C° 0 mm 1 mps 704 mmHg 84%
    06:00 +18°C° 0 mm 1 mps 705 mmHg 72%
    07:00 +21°C° 0 mm 1 mps 705 mmHg 61%
    08:00 +23°C° 0 mm 1 mps 706 mmHg 50%
    09:00 +25°C° 0 mm 2 mps 706 mmHg 44%
    10:00 +26°C° 0 mm 3 mps 706 mmHg 37%
    11:00 +28°C° 0 mm 3 mps 706 mmHg 31%
    12:00 +29°C° 0 mm 4 mps 706 mmHg 29%
    13:00 +29°C° 0 mm 4 mps 705 mmHg 28%
    14:00 +30°C° 0 mm 5 mps 705 mmHg 26%
    15:00 +28°C° 0 mm 5 mps 705 mmHg 32%
    16:00 +27°C° 0 mm 4 mps 704 mmHg 38%
    17:00 +25°C° 0 mm 4 mps 704 mmHg 44%
    18:00 +23°C° 0 mm 4 mps 704 mmHg 50%
    19:00 +21°C° 0 mm 3 mps 704 mmHg 55%
    20:00 +20°C° 0 mm 3 mps 704 mmHg 61%
    21:00 +20°C° 0 mm 3 mps 704 mmHg 59%
    22:00 +19°C° 0 mm 2 mps 704 mmHg 57%
    23:00 +19°C° 0 mm 2 mps 704 mmHg 55%

    28 October, Monday

    Time Temperature Precipitation Wind Pressure Humidity
    00:00 +18°C° 0 mm 2 mps 704 mmHg 57%
    01:00 +18°C° 0 mm 2 mps 704 mmHg 59%
    02:00 +18°C° 0 mm 1 mps 704 mmHg 60%
    03:00 +18°C° 0 mm 1 mps 704 mmHg 60%
    04:00 +18°C° 0 mm 1 mps 703 mmHg 60%
    05:00 +18°C° 0 mm 1 mps 703 mmHg 60%
    06:00 +20°C° 0 mm 1 mps 704 mmHg 52%
    07:00 +22°C° 0 mm 1 mps 705 mmHg 43%
    08:00 +24°C° 0 mm 2 mps 706 mmHg 35%
    09:00 +26°C° 0 mm 2 mps 706 mmHg 31%
    10:00 +28°C° 0 mm 2 mps 706 mmHg 27%
    11:00 +29°C° 0 mm 3 mps 706 mmHg 24%
    12:00 +30°C° 0 mm 3 mps 706 mmHg 23%
    13:00 +31°C° 0 mm 3 mps 705 mmHg 21%
    14:00 +31°C° 0 mm 3 mps 705 mmHg 20%
    15:00 +29°C° 0 mm 3 mps 705 mmHg 27%
    16:00 +27°C° 0 mm 3 mps 704 mmHg 34%
    17:00 +25°C° 0 mm 3 mps 704 mmHg 40%
    18:00 +24°C° 0 mm 3 mps 704 mmHg 44%
    19:00 +21°C° 0 mm 3 mps 704 mmHg 49%
    20:00 +20°C° 0 mm 3 mps 704 mmHg 53%
    21:00 +20°C° 0 mm 2 mps 704 mmHg 49%
    22:00 +19°C° 0 mm 2 mps 704 mmHg 45%
    23:00 +19°C° 0 mm 2 mps 704 mmHg 41%
    Show more